Location: breval
(48.9474°N, 1.5319°E)
Time: 21:24:31
(UTC+00:00)

ELECTRON R/B - Visible Passes

Search period start: 20 May 2018 00:00
Search period end: 30 May 2018 00:00
Orbit: 285 x 480 km, 82.9° (Epoch: 19 May)

Date Brightness Start Highest point End Pass type
(mag) Time Alt. Az. Time Alt. Az. Time Alt. Az.
20 May 5.1 20:26:15 10° N 20:28:35 36° ENE 20:30:40 12° SE visible
21 May 5.9 21:02:50 10° NNW 21:05:04 32° W 21:07:16 10° SSW visible
23 May 5.7 20:42:42 10° NNW 20:45:01 37° W 20:47:18 10° SSW visible
25 May 5.4 20:22:17 10° NNW 20:24:39 45° W 20:27:02 10° S visible
26 May 7.7 21:00:10 10° WNW 21:00:33 10° W 21:00:57 10° W visible
28 May 7.6 20:38:41 10° WNW 20:39:47 12° W 20:40:55 10° WSW visible
